When you browse on this site, cookies collect data to enhance your experience and personalize the content and advertising you see.
Visit our Privacy Policy to learn more. By continuing to use the site, you agree to this use of cookies and data.
  • In United Kingdom
  • List of Countries
  • For 7 days
  • Water Temperature
  • Satellite Maps
  • Weather Map
  • Weather Widgets
  • user-avatar
    Login

    Hourly Weather Exeter

    Today, 17 December, Monday

    Time Temperature Precipitation Wind Pressure Humidity
    00:00 +5°C° 0 mm 6 mps 750 mmHg 85%
    01:00 +5°C° 0 mm 6 mps 751 mmHg 86%
    02:00 +5°C° 0 mm 6 mps 751 mmHg 86%
    03:00 +4°C° 0 mm 6 mps 752 mmHg 87%
    04:00 +5°C° 0 mm 5 mps 752 mmHg 87%
    05:00 +5°C° 0 mm 5 mps 753 mmHg 87%
    06:00 +5°C° 0 mm 5 mps 753 mmHg 88%
    07:00 +5°C° 0 mm 5 mps 754 mmHg 88%
    08:00 +6°C° 0 mm 5 mps 754 mmHg 88%
    09:00 +6°C° 0 mm 5 mps 755 mmHg 88%
    10:00 +7°C° 0 mm 6 mps 755 mmHg 86%
    11:00 +8°C° 0 mm 6 mps 755 mmHg 84%
    12:00 +9°C° 0 mm 7 mps 755 mmHg 82%
    13:00 +9°C° 0.1 mm 7 mps 755 mmHg 83%
    14:00 +9°C° 0.1 mm 8 mps 754 mmHg 85%
    15:00 +9°C° 0.1 mm 8 mps 754 mmHg 87%
    16:00 +9°C° 0.1 mm 8 mps 754 mmHg 88%
    17:00 +9°C° 0.1 mm 8 mps 754 mmHg 89%
    18:00 +8°C° 0.1 mm 9 mps 754 mmHg 90%
    19:00 +8°C° 0 mm 9 mps 753 mmHg 89%
    20:00 +8°C° 0 mm 9 mps 753 mmHg 89%
    21:00 +10°C° 0 mm 9 mps 753 mmHg 89%
    22:00 +9°C° 0.1 mm 10 mps 753 mmHg 88%
    23:00 +9°C° 0.1 mm 10 mps 752 mmHg 88%

    Tomorrow, 18 December, Tuesday

    Time Temperature Precipitation Wind Pressure Humidity
    00:00 +9°C° 0.1 mm 11 mps 752 mmHg 87%
    01:00 +9°C° 0.1 mm 11 mps 751 mmHg 86%
    02:00 +9°C° 0.1 mm 12 mps 751 mmHg 86%
    03:00 +9°C° 0.1 mm 12 mps 750 mmHg 85%
    04:00 +8°C° 0 mm 12 mps 749 mmHg 83%
    05:00 +8°C° 0 mm 12 mps 748 mmHg 82%
    06:00 +8°C° 0 mm 12 mps 747 mmHg 81%
    07:00 +8°C° 0.6 mm 13 mps 746 mmHg 82%
    08:00 +8°C° 0.6 mm 13 mps 746 mmHg 83%
    09:00 +6°C° 0.6 mm 14 mps 745 mmHg 84%
    10:00 +6°C° 1.6 mm 14 mps 744 mmHg 85%
    11:00 +6°C° 1.6 mm 14 mps 744 mmHg 86%
    12:00 +6°C° 1.6 mm 14 mps 743 mmHg 87%
    13:00 +8°C° 1.6 mm 13 mps 743 mmHg 88%
    14:00 +8°C° 1.6 mm 12 mps 742 mmHg 90%
    15:00 +8°C° 1.6 mm 11 mps 742 mmHg 91%
    16:00 +7°C° 1.1 mm 10 mps 742 mmHg 89%
    17:00 +7°C° 1.1 mm 9 mps 742 mmHg 87%
    18:00 +6°C° 1.1 mm 7 mps 742 mmHg 85%
    19:00 +6°C° 0 mm 7 mps 743 mmHg 86%
    20:00 +7°C° 0 mm 6 mps 743 mmHg 87%
    21:00 +6°C° 0 mm 5 mps 744 mmHg 87%
    22:00 +6°C° 0.1 mm 5 mps 744 mmHg 88%
    23:00 +6°C° 0.1 mm 5 mps 744 mmHg 88%

    Day after tomorrow, 19 December, Wednesday

    Time Temperature Precipitation Wind Pressure Humidity
    00:00 +6°C° 0.1 mm 5 mps 745 mmHg 88%
    01:00 +6°C° 0.5 mm 5 mps 745 mmHg 88%
    02:00 +6°C° 0.5 mm 5 mps 745 mmHg 88%
    03:00 +6°C° 0.5 mm 5 mps 745 mmHg 87%
    04:00 +6°C° 0.2 mm 5 mps 745 mmHg 87%
    05:00 +6°C° 0.2 mm 5 mps 745 mmHg 87%
    06:00 +5°C° 0.2 mm 5 mps 746 mmHg 86%
    07:00 +5°C° 0 mm 5 mps 746 mmHg 86%
    08:00 +5°C° 0 mm 5 mps 746 mmHg 86%
    09:00 +5°C° 0 mm 4 mps 747 mmHg 86%
    10:00 +6°C° 0 mm 5 mps 747 mmHg 83%
    11:00 +7°C° 0 mm 5 mps 747 mmHg 80%
    12:00 +7°C° 0 mm 6 mps 747 mmHg 77%
    13:00 +7°C° 0.2 mm 6 mps 747 mmHg 77%
    14:00 +7°C° 0.2 mm 6 mps 747 mmHg 78%
    15:00 +7°C° 0.2 mm 6 mps 747 mmHg 78%
    16:00 +5°C° 0.2 mm 6 mps 747 mmHg 80%
    17:00 +5°C° 0.2 mm 6 mps 747 mmHg 81%
    18:00 +5°C° 0.2 mm 6 mps 747 mmHg 83%
    19:00 +5°C° 0.2 mm 6 mps 747 mmHg 83%
    20:00 +4°C° 0.2 mm 7 mps 747 mmHg 83%
    21:00 +4°C° 0.2 mm 7 mps 747 mmHg 83%
    22:00 +4°C° 0.1 mm 7 mps 747 mmHg 83%
    23:00 +4°C° 0.1 mm 7 mps 747 mmHg 83%

    20 December, Thursday

    Time Temperature Precipitation Wind Pressure Humidity
    00:00 +4°C° 0.1 mm 7 mps 747 mmHg 84%
    01:00 +5°C° 0.4 mm 7 mps 747 mmHg 84%
    02:00 +5°C° 0.4 mm 8 mps 747 mmHg 85%
    03:00 +5°C° 0.4 mm 8 mps 747 mmHg 86%
    04:00 +5°C° 0.6 mm 8 mps 747 mmHg 86%
    05:00 +5°C° 0.6 mm 8 mps 748 mmHg 85%
    06:00 +5°C° 0.6 mm 8 mps 748 mmHg 85%
    07:00 +5°C° 0.3 mm 7 mps 748 mmHg 86%
    08:00 +5°C° 0.3 mm 7 mps 749 mmHg 86%
    09:00 +5°C° 0.3 mm 7 mps 749 mmHg 87%
    10:00 +6°C° 0.1 mm 7 mps 749 mmHg 85%
    11:00 +8°C° 0.1 mm 7 mps 750 mmHg 82%
    12:00 +8°C° 0.1 mm 7 mps 750 mmHg 80%
    13:00 +8°C° 0.2 mm 7 mps 750 mmHg 80%
    14:00 +8°C° 0.2 mm 7 mps 750 mmHg 81%
    15:00 +8°C° 0.2 mm 7 mps 750 mmHg 81%
    16:00 +7°C° 0.1 mm 6 mps 751 mmHg 83%
    17:00 +7°C° 0.1 mm 6 mps 751 mmHg 84%
    18:00 +5°C° 0.1 mm 6 mps 751 mmHg 86%
    19:00 +6°C° 0 mm 5 mps 751 mmHg 87%
    20:00 +6°C° 0 mm 5 mps 751 mmHg 87%
    21:00 +6°C° 0 mm 5 mps 751 mmHg 87%
    22:00 +5°C° 0 mm 5 mps 751 mmHg 87%
    23:00 +5°C° 0 mm 5 mps 751 mmHg 87%

    21 December, Friday

    Time Temperature Precipitation Wind Pressure Humidity
    00:00 +5°C° 0 mm 4 mps 750 mmHg 87%
    01:00 +5°C° 0 mm 4 mps 750 mmHg 89%
    02:00 +6°C° 0 mm 4 mps 749 mmHg 90%
    03:00 +6°C° 0 mm 4 mps 748 mmHg 92%
    04:00 +7°C° 1.1 mm 5 mps 747 mmHg 93%
    05:00 +8°C° 1.1 mm 6 mps 747 mmHg 94%
    06:00 +9°C° 1.1 mm 7 mps 746 mmHg 96%
    07:00 +10°C° 0.9 mm 7 mps 746 mmHg 95%
    08:00 +10°C° 0.9 mm 7 mps 746 mmHg 95%
    09:00 +11°C° 0.9 mm 7 mps 746 mmHg 95%
    10:00 +10°C° 0 mm 8 mps 746 mmHg 90%
    11:00 +10°C° 0 mm 8 mps 747 mmHg 86%
    12:00 +10°C° 0 mm 9 mps 748 mmHg 81%
    13:00 +9°C° 0 mm 8 mps 749 mmHg 82%
    14:00 +9°C° 0 mm 8 mps 750 mmHg 82%
    15:00 +9°C° 0 mm 7 mps 751 mmHg 83%
    16:00 +8°C° 0 mm 6 mps 751 mmHg 85%
    17:00 +8°C° 0 mm 6 mps 752 mmHg 88%
    18:00 +7°C° 0 mm 5 mps 752 mmHg 91%
    19:00 +7°C° 0 mm 5 mps 752 mmHg 91%
    20:00 +7°C° 0 mm 6 mps 753 mmHg 91%
    21:00 +7°C° 0 mm 6 mps 753 mmHg 91%
    22:00 +8°C° 0 mm 6 mps 753 mmHg 92%
    23:00 +8°C° 0 mm 7 mps 753 mmHg 92%

    22 December, Saturday

    Time Temperature Precipitation Wind Pressure Humidity
    00:00 +8°C° 0 mm 7 mps 752 mmHg 93%
    01:00 +9°C° 0.2 mm 7 mps 752 mmHg 93%
    02:00 +9°C° 0.2 mm 6 mps 752 mmHg 93%
    03:00 +10°C° 0.2 mm 6 mps 752 mmHg 94%
    04:00 +9°C° 0.1 mm 5 mps 752 mmHg 94%
    05:00 +10°C° 0.1 mm 4 mps 752 mmHg 95%
    06:00 +9°C° 0.1 mm 3 mps 753 mmHg 95%
    07:00 +10°C° 0 mm 4 mps 753 mmHg 95%
    08:00 +10°C° 0 mm 4 mps 754 mmHg 96%
    09:00 +10°C° 0 mm 4 mps 754 mmHg 96%
    10:00 +11°C° 0 mm 4 mps 755 mmHg 93%
    11:00 +11°C° 0 mm 4 mps 755 mmHg 91%
    12:00 +12°C° 0 mm 5 mps 755 mmHg 88%
    13:00 +12°C° 0 mm 4 mps 755 mmHg 89%
    14:00 +11°C° 0 mm 4 mps 755 mmHg 90%
    15:00 +11°C° 0 mm 3 mps 756 mmHg 91%
    16:00 +10°C° 0 mm 3 mps 756 mmHg 93%
    17:00 +10°C° 0 mm 4 mps 756 mmHg 94%
    18:00 +8°C° 0 mm 4 mps 756 mmHg 96%
    19:00 +10°C° 0 mm 4 mps 756 mmHg 96%
    20:00 +10°C° 0 mm 4 mps 756 mmHg 97%
    21:00 +10°C° 0 mm 5 mps 756 mmHg 97%
    22:00 +10°C° 0.1 mm 5 mps 756 mmHg 97%
    23:00 +12°C° 0.1 mm 5 mps 756 mmHg 97%
    Show more